Regional Weather Roundup
Issued by NWS Little Rock, AR

Home | Current Version | Previous Version | Text Only | Print | Product List | Glossary Off
Versions: 1 2 3 4 5 6 7 8 9 10 11 12 13 14 15 16 17 18 19 20 21 22 23 24 25 26 27 28 29 30 31 32 33 34 35 36 37 38 39 40 41 42 43 44 45 46 47 48 49 50

709
ASUS44 KLZK 231605
RWRLZK

WEATHER ROUNDUP FOR ARKANSAS
NATIONAL WEATHER SERVICE LITTLE ROCK AR
1100 AM CDT FRI JUN 23 2017

NOTE: "FAIR" INDICATES FEW OR NO CLOUDS BELOW 12,000 FEET WITH NO
SIGNIFICANT WEATHER AND/OR OBSTRUCTIONS TO VISIBILITY.

ARZ001-003-010-029-231700-
NORTHWEST ARKANSAS

CITY           SKY/WX    TMP DP  RH WIND       PRES   REMARKS
FAYETTEVILLE   CLOUDY    79  74  84 SW5       29.84R
FORT SMITH     PTSUNNY   84  76  76 W8        29.80S HX  93
HARRISON       CLOUDY    82  74  76 W9        29.82R HX  88
BENTONVILLE    CLOUDY    81  72  74 CALM      29.84S
ROGERS         CLOUDY    81  73  76 W9        29.84R HX  86
SILOAM SPGS    PTSUNNY   82  73  74 W9        29.83R HX  88
HIGHFILL       CLOUDY    80  75  84 SW5       29.84R HX  85
SPRINGDALE     CLOUDY    81  75  83 W7        29.85R HX  86
$$

ARZ004-005-016-231700-
NORTH CENTRAL ARKANSAS

CITY           SKY/WX    TMP DP  RH WIND       PRES   REMARKS
BATESVILLE     CLOUDY    79  75  89 W8        29.75R
FLIPPIN        CLOUDY   N/A N/A N/A W9        29.75S
MTN HOME       CLOUDY    80  73  79 VRB6      29.78R
$$

ARZ040-041-231700-
WEST CENTRAL ARKANSAS

CITY           SKY/WX    TMP DP  RH WIND       PRES   REMARKS
MENA           MOSUNNY   86  81  84 W7        29.84S HX 102
MOUNT IDA      PTSUNNY   85  73  67 VRB6      29.80R HX  91
$$

ARZ009-017-025-026-028-231700-
NORTHEAST ARKANSAS

CITY           SKY/WX    TMP DP  RH WIND       PRES   REMARKS
JONESBORO      CLOUDY    79  76  90 W7        29.69R
WALNUT RIDGE   PTSUNNY   81  73  78 N6        29.71R HX  85
BLYTHEVILLE    CLOUDY    77  76  96 NW9       29.65R
$$

ARZ022-023-033-042-044-231700-
CENTRAL ARKANSAS

CITY           SKY/WX    TMP DP  RH WIND       PRES   REMARKS
LITTLE ROCK    CLOUDY    86  77  74 W10       29.78R HX  97
N LITTLE ROCK    N/A     83  76  81 W6        29.78R HX  91
JACKSONVILLE   MOSUNNY   83  76  78 W9        29.78R HX  91
CONWAY           N/A     86  75  70 W10G16    29.78R HX  95
SEARCY         CLOUDY    78  77  96 VRB7      29.78R
HOT SPRINGS    CLOUDY    85  77  77 W8        29.81R HX  95
RUSSELLVILLE   PTSUNNY   84  75  74 NW10      29.78R HX  92
CLINTON        CLOUDY    84  73  70 NW9G15    29.78R HX  91
$$

ARZ036-231700-
EAST ARKANSAS

CITY           SKY/WX    TMP DP  RH WIND       PRES   REMARKS
WEST MEMPHIS   CLOUDY    76  76 100 SW12G22   29.72R
$$

ARZ050-053-066-070-073-231700-
SOUTHWEST ARKANSAS

CITY           SKY/WX    TMP DP  RH WIND       PRES   REMARKS
ARKADELPHIA    CLOUDY    84  78  82 W5        29.81R HX  95
CAMDEN         CLOUDY    81  73  78 SW6       29.83R HX  85
TEXARKANA      PTSUNNY   87  76  69 VRB6      29.83R HX  97
EL DORADO      CLOUDY    77  76  96 SW9       29.85R
DE QUEEN       MOSUNNY   88  79  74 VRB5      29.80S HX 103
$$

ARZ056-057-069-231700-
SOUTHEAST ARKANSAS

CITY           SKY/WX    TMP DP  RH WIND       PRES   REMARKS
PINE BLUFF     CLOUDY    78  75  90 SW13      29.81R
STUTTGART      CLOUDY    81  66  61 SW15      29.79R
MONTICELLO     LGT RAIN  75  73  93 SW14G22   29.83R

$$






USA.gov is the U.S. government's official web portal to all federal, state and local government web resources and services.